Simultaneous Nadir Overpasses (SNOs) Predictions

Prediction of SNOs between LANDSAT-8 and NOAA-19 Satellite Orbit:

Table of predicted SNOs for the next 14.0 days since TLE Epoch: 4/24/2015
Index Date (LANDSAT-8) Time (LANDSAT-8) Lat,Lon (LANDSAT-8) SZA (LANDSAT-8 ) Date (NOAA-19) Time (NOAA-19) Lat,Lon (NOAA-19) SZA (NOAA-19 ) Distance(km) Time Diff (sec)
1 04/25/2015 05:54:56 73.24, 92.48 60.06 04/25/2015 05:53:43 73.29, 92.06 60.10 14.69 73
2 04/25/2015 06:44:27 -73.06,-100.24 120.14 04/25/2015 06:44:44 -73.07,-100.23 120.12 1.94 17
3 04/27/2015 11:28:41 -73.14,-171.16 120.77 04/27/2015 11:28:09 -73.11,-171.13 120.79 2.88 32
4 04/27/2015 12:18:08 73.05, -3.68 59.14 04/27/2015 12:19:05 73.03, -3.68 59.12 2.77 57
5 04/29/2015 16:12:51 -73.40, 118.31 121.19 04/29/2015 16:11:40 -73.46, 117.25 121.14 34.28 71
6 04/29/2015 17:02:22 73.10, -74.65 58.50 04/29/2015 17:02:31 73.11, -74.69 58.51 1.58 9
7 05/01/2015 21:46:36 73.13,-145.66 57.86 05/01/2015 21:45:56 73.16,-145.61 57.89 3.29 40
8 05/01/2015 22:36:05 -73.06, 21.84 122.22 05/01/2015 22:36:58 -73.04, 21.88 122.24 2.90 53
9 05/04/2015 02:30:40 73.66, 144.38 57.76 05/04/2015 02:29:32 73.76, 142.16 57.83 69.97 68
10 05/04/2015 03:20:18 -73.12, -49.11 122.81 05/04/2015 03:20:23 -73.12, -49.10 122.82 0.46 5
11 05/06/2015 08:04:31 -73.16,-120.10 123.41 05/06/2015 08:03:47 -73.16,-120.01 123.40 2.93 44
12 05/06/2015 08:53:57 73.12, 47.46 56.54 05/06/2015 08:54:45 73.10, 47.38 56.53 2.96 48




NCC Satellite Simultaneous Nadir Overpasses (SNOs) Prediction Service
